Theta_e
351 353 354 353 354 354 358 357 350 353 352 350 350 346 349 350 351 353 347 345 343 343 345 339 334 335 339 336 338 342 343 343 343 343 342 342 341 334 332 328 329 335 336 336 338 340 342 341 339
351 352 352 348 356 359 355 351 353 350 350 351 350 348 348 351 350 348 347 344 343 342 347 339 340 339 340 340 337 336 336 336 337 340 339 337 335 333 333 332 331 332 333 334 334 337 338 338 338
349 351 352 354 354 357 355 349 348 347 349 351 350 348 349 351 349 349 347 344 344 341 343 340 338 338 340 340 339 337 335 335 335 336 337 338 338 336 337 338 338 337 336 336 336 336 336 335 335
349 350 347 355 355 350 350 348 347 349 351 350 350 349 349 349 349 348 346 344 344 340 340 338 339 340 340 340 339 339 339 339 339 339 339 339 338 338 338 338 338 339 339 340 340 340 339 339 337
348 346 353 355 355 349 348 349 350 352 351 350 348 349 349 348 347 346 345 344 342 341 340 339 339 340 339 339 339 338 339 339 339 336 336 336 337 336 336 337 339 340 340 339 339 340 339 339 338
345 344 350 355 353 351 349 349 352 352 351 350 349 349 349 347 345 346 344 344 342 342 344 343 342 341 342 341 339 338 338 339 339 337 335 337 338 339 337 338 339 337 337 333 332 337 340 337 338
346 348 350 350 349 351 352 350 351 351 351 350 349 351 350 348 346 345 344 343 343 343 343 343 343 342 342 343 342 342 341 341 336 334 337 340 336 335 337 340 334 337 336 335 339 337 335 333 334
345 347 349 348 350 351 351 351 351 350 349 349 348 351 351 350 345 344 344 344 345 344 343 343 342 342 344 342 341 337 333 338 334 336 340 333 338 338 330 331 335 333 335 335 337 338 337 335 335
341 345 348 346 349 348 352 352 349 347 347 349 349 349 348 348 342 345 345 345 345 343 341 338 336 340 340 337 338 333 334 332 335 337 334 332 337 332 337 336 333 336 334 335 335 336 337 336 336
340 344 341 342 345 349 352 352 349 347 347 349 349 348 347 347 343 346 347 344 344 337 335 334 335 336 336 333 332 336 339 329 337 338 337 334 333 334 336 336 335 334 338 337 335 335 337 336 335
336 339 340 341 345 348 350 351 348 348 349 348 349 350 349 348 347 345 344 340 337 342 340 337 337 337 336 336 334 336 338 336 338 337 337 334 337 338 339 337 336 340 343 343 343 339 337 337 337
330 334 338 342 347 347 349 349 349 348 348 348 349 348 349 349 348 345 345 342 342 345 344 338 338 337 337 337 336 339 339 338 339 337 339 340 342 342 342 343 344 343 343 343 342 340 339 339 339
329 327 328 330 347 350 349 350 350 350 348 347 349 350 349 349 349 347 347 346 345 344 345 341 341 339 337 335 343 343 341 339 339 336 338 341 341 342 344 345 344 343 340 342 342 340 341 340 340
326 326 327 333 347 349 350 349 350 349 349 348 349 350 350 350 349 349 349 346 345 346 344 343 344 341 338 335 346 343 342 340 338 338 343 343 341 343 344 344 344 342 343 344 343 342 341 340 340
325 329 332 342 347 349 349 351 351 348 349 348 348 349 350 349 349 345 345 345 346 344 345 346 345 344 342 342 344 343 343 340 336 340 344 341 343 342 342 343 344 345 343 342 342 342 343 341 340
329 331 331 330 347 348 350 350 347 348 349 349 348 349 349 349 346 346 345 346 346 347 345 346 345 344 344 346 345 345 343 342 335 339 344 342 344 342 343 344 341 339 344 344 342 343 344 342 341
330 331 330 329 340 343 351 346 347 348 348 349 349 349 349 349 348 347 346 346 347 347 347 346 345 344 345 346 346 345 344 343 338 338 342 342 342 342 341 342 341 342 343 342 342 342 343 343 342
329 328 328 329 329 340 339 343 346 348 348 348 348 349 349 349 348 347 347 347 347 347 347 347 346 345 345 345 346 345 345 344 341 339 340 342 342 341 339 342 343 342 342 344 343 341 342 344 344
326 327 328 329 328 329 331 336 339 348 347 347 347 348 348 348 348 348 348 348 348 348 347 347 347 346 346 345 345 345 346 344 340 340 343 342 343 343 341 343 344 343 343 343 344 345 343 342 344
326 326 328 328 333 335 345 347 345 346 349 347 346 346 347 347 347 347 346 347 346 345 347 347 348 347 346 345 344 345 345 344 340 340 343 343 343 343 344 344 344 345 342 343 344 345 342 343 343
327 326 327 327 327 340 342 341 340 345 348 348 347 346 345 345 345 346 346 345 345 345 345 346 347 347 346 345 345 345 344 344 344 341 344 343 343 344 344 344 344 344 342 342 342 343 344 344 344
328 325 326 326 336 339 340 336 342 341 345 349 347 347 346 343 344 345 346 346 345 345 345 345 345 346 347 346 345 345 344 342 344 343 343 343 343 345 343 344 344 343 346 342 343 343 344 345 345
328 331 335 337 338 337 337 342 338 339 342 342 344 347 346 343 345 345 345 347 345 345 345 345 345 346 347 347 346 346 345 344 344 344 342 343 343 346 345 343 344 342 347 341 344 343 344 345 343
329 332 330 331 334 331 336 339 335 340 340 340 339 340 344 345 344 345 346 346 345 345 344 344 346 347 347 348 347 347 346 344 341 344 343 342 343 345 344 344 344 342 344 343 342 344 345 345 345
327 329 330 329 329 331 333 337 338 339 339 339 339 341 341 346 344 346 346 346 345 345 344 345 346 346 346 347 347 348 346 345 341 343 343 343 345 343 341 342 343 344 343 345 343 343 344 345 342
329 328 329 330 330 330 331 334 335 338 337 337 342 338 339 344 345 344 345 345 346 345 345 345 344 345 346 347 347 347 347 345 343 339 342 343 344 342 344 343 343 343 344 343 346 345 345 344 344
325 328 325 328 328 331 331 334 336 336 340 339 343 344 341 339 342 344 344 347 345 344 339 342 345 345 347 347 347 346 346 345 344 336 340 341 342 341 344 343 343 344 343 346 345 346 345 343 343
326 325 328 328 330 331 330 335 337 341 343 342 344 345 344 343 340 341 342 345 344 344 342 338 343 341 346 347 347 346 345 345 344 341 336 340 340 340 344 346 345 344 346 346 344 342 342 342 341
326 327 325 327 329 330 331 333 336 341 342 342 342 343 344 342 341 341 341 341 339 344 344 343 343 344 345 346 347 346 345 345 345 343 338 338 341 342 343 346 344 344 345 345 344 345 344 344 342
324 325 327 328 334 331 335 336 333 339 341 341 341 341 341 344 341 338 340 343 341 342 344 344 342 344 346 347 347 347 345 345 346 345 344 344 344 344 343 344 345 347 345 344 345 346 343 342 341
Wind_Speed
12 9 6 3 1 3 3 3 1 4 2 2 1 4 2 3 3 2 17 24 26 25 23 22 21 22 16 17 14 15 15 16 16 17 15 13 11 11 12 12 12 12 10 9 9 8 11 8 8
12 9 3 2 3 3 2 1 2 3 2 2 5 4 2 3 2 9 24 24 26 25 23 23 21 20 18 16 14 15 15 15 15 15 13 11 10 11 11 10 12 11 10 10 11 11 10 9 9
12 9 4 3 3 3 3 2 3 3 3 0 3 6 3 2 2 22 20 31 27 24 23 23 20 18 18 16 14 14 14 13 13 12 11 10 10 10 10 9 10 9 8 11 10 11 12 12 11
10 4 4 4 7 3 1 3 3 2 2 3 5 6 4 3 13 16 28 31 27 24 22 22 19 18 17 16 13 14 13 12 11 10 9 9 9 9 9 9 8 8 9 9 9 10 11 9 9
7 3 4 3 3 1 2 1 4 3 5 7 6 4 5 9 7 17 30 28 26 25 22 21 19 18 16 16 14 15 13 10 11 9 9 8 8 8 7 7 8 6 5 6 7 7 7 7 7
3 2 3 4 3 2 2 4 4 4 5 6 6 7 4 7 12 23 27 26 24 23 21 20 19 18 16 16 14 15 12 11 9 8 7 7 7 6 6 5 3 4 3 4 3 5 6 5 6
3 2 2 2 2 3 1 6 3 2 5 2 10 4 5 11 17 24 25 25 23 22 21 19 19 17 15 14 14 13 12 10 9 9 9 7 7 6 5 4 3 1 6 4 3 4 5 4 6
3 1 1 1 1 2 3 6 1 4 2 7 7 5 7 18 23 25 25 23 21 21 19 18 18 17 15 14 12 12 11 10 10 11 8 7 7 6 5 5 4 9 8 7 3 4 5 4 5
2 1 2 1 3 0 5 6 3 3 4 4 4 3 8 24 27 25 24 23 22 21 19 18 17 16 15 14 13 11 10 11 11 9 8 8 8 7 7 8 11 6 8 8 6 4 5 5 5
1 1 3 2 3 2 6 6 7 4 6 6 4 5 15 27 29 27 26 27 23 21 20 17 16 15 16 15 13 11 9 12 11 10 9 7 7 8 7 8 10 10 4 8 10 9 8 8 5
0 2 2 4 7 1 4 8 5 6 6 11 13 16 23 28 26 26 25 25 25 20 19 19 16 16 15 15 14 13 12 14 13 11 10 10 8 7 5 6 8 8 6 4 6 10 10 10 8
3 7 7 6 5 7 5 5 6 11 6 5 14 18 26 27 27 26 24 25 23 21 20 19 18 17 16 15 14 11 13 14 15 12 11 10 7 5 4 6 7 2 2 1 4 7 8 7 7
3 10 9 11 4 5 5 7 5 8 13 6 15 22 26 25 25 25 23 22 22 22 21 20 18 18 17 16 13 11 13 15 16 12 13 10 8 5 3 4 4 3 2 3 4 6 7 6 5
9 13 15 5 2 5 6 3 3 4 8 9 18 22 24 24 25 24 25 24 25 21 20 19 18 17 18 18 13 10 12 14 16 15 13 10 8 4 3 3 3 3 4 6 6 5 6 6 6
8 7 5 5 2 2 5 6 11 6 13 16 17 19 22 23 23 26 26 26 24 22 20 18 16 17 19 18 14 10 11 14 16 16 13 10 7 5 5 2 2 4 3 3 4 5 4 5 6
4 1 6 3 4 3 7 13 6 11 16 17 18 20 21 24 25 23 23 24 23 22 22 19 16 17 18 19 15 11 12 13 16 16 13 11 8 6 5 3 3 4 4 2 5 4 3 4 5
4 4 8 8 3 2 10 13 4 13 17 16 19 22 23 22 22 23 24 23 25 23 22 21 19 17 17 19 15 14 13 14 16 17 16 12 9 8 5 2 3 3 3 1 3 7 6 4 6
5 6 7 10 3 5 10 21 11 13 19 21 19 20 22 22 27 26 26 24 24 25 25 24 22 18 18 16 17 17 14 17 16 16 17 14 10 8 7 4 1 5 3 2 4 4 5 4 5
6 7 10 20 10 6 9 18 17 15 19 20 22 24 25 27 24 22 24 24 26 27 28 26 24 20 20 19 20 19 18 19 18 16 15 13 10 7 7 6 3 3 4 2 2 3 5 7 7
7 9 12 13 4 5 6 17 17 12 22 28 28 25 26 26 22 22 25 26 28 24 25 27 24 23 21 21 20 19 17 20 19 18 16 14 12 8 7 7 5 3 3 3 4 5 6 6 7
7 7 6 8 10 0 9 10 6 3 10 16 23 22 23 27 28 25 25 29 30 30 25 23 23 23 22 20 18 18 16 18 21 21 18 15 12 9 9 7 7 6 5 5 6 4 5 7 7
7 8 10 9 5 6 5 7 4 4 5 11 17 22 26 23 27 27 25 27 28 27 25 22 20 21 23 20 19 19 16 17 22 22 20 16 13 11 9 7 6 8 7 6 4 6 6 2 3
4 1 3 2 3 3 2 4 3 5 5 3 11 23 26 25 21 26 29 26 26 24 24 21 19 19 23 22 21 17 18 14 16 21 20 18 15 12 11 9 8 8 8 7 5 5 6 7 5
2 4 1 1 1 4 1 3 3 5 8 9 11 8 14 25 26 24 21 20 23 24 20 22 19 19 21 23 20 19 17 14 16 21 19 17 15 14 13 10 8 8 9 9 8 9 7 6 6
5 5 5 3 2 3 1 4 6 3 8 5 13 12 5 16 22 20 20 23 25 26 28 20 23 19 21 24 21 19 17 16 14 20 19 17 15 13 13 12 10 8 9 10 10 9 8 7 5
5 5 4 3 2 6 2 5 5 3 9 6 7 4 2 12 20 20 22 23 24 23 22 26 22 23 21 23 21 19 19 18 16 19 22 19 16 13 11 14 14 12 11 10 11 11 8 8 6
5 4 2 3 1 4 2 4 2 2 3 8 8 7 2 9 18 21 23 21 21 21 14 18 28 25 22 21 20 20 19 20 18 19 21 20 17 14 13 12 11 11 10 11 11 11 9 8 7
4 7 3 2 3 4 3 5 7 7 8 8 10 13 11 5 12 22 25 26 25 28 18 13 10 20 23 21 20 20 19 20 19 19 23 21 18 16 12 13 13 11 10 11 10 8 9 9 8
4 4 2 3 2 3 3 4 3 3 5 7 10 14 15 10 7 12 19 25 26 26 30 19 17 15 20 23 21 20 20 20 20 20 21 21 19 17 16 13 12 11 8 9 9 8 9 10 10
3 3 5 3 4 1 3 3 1 3 4 5 10 11 12 9 3 7 13 17 20 26 29 25 17 18 19 21 22 21 20 20 22 22 22 20 19 18 17 15 14 13 11 12 12 11 10 12 14
Wind_Direction
8 359 4 39 80 64 68 64 19 85 87 48 92 181 139 71 343 32 151 156 161 156 155 154 151 143 139 139 150 152 153 154 162 172 176 176 181 180 187 185 178 178 184 191 197 194 194 197 205
5 3 17 60 61 64 57 25 56 67 121 353 133 138 89 87 70 137 148 156 162 159 156 156 154 147 149 146 156 151 153 157 163 171 178 184 183 186 190 193 204 214 215 218 217 212 212 225 232
1 10 36 62 63 77 98 200 192 137 182 333 125 65 66 43 106 148 159 157 161 163 158 157 158 158 156 155 162 162 162 163 168 175 187 194 193 198 204 215 226 227 226 226 224 226 237 235 240
4 19 52 60 62 76 135 182 206 149 162 198 126 81 74 355 150 158 158 158 162 163 161 161 164 165 163 168 169 169 169 173 177 186 194 202 208 215 221 232 238 239 232 230 223 227 234 235 226
22 37 51 79 64 155 207 218 188 161 153 159 164 114 79 120 144 157 157 159 165 163 163 167 171 174 172 175 182 180 178 186 192 195 203 214 214 223 231 235 236 237 235 233 228 228 224 225 221
48 29 43 52 10 306 238 180 192 212 174 136 107 113 120 158 160 157 159 163 168 166 167 171 173 178 177 178 185 181 192 197 210 208 211 213 214 214 217 223 230 238 233 240 239 237 231 210 203
64 48 47 325 310 287 255 164 206 115 136 140 147 104 141 165 165 160 163 166 169 172 172 171 175 181 184 182 185 185 192 204 206 203 198 200 203 192 187 194 218 218 233 210 202 238 239 188 187
67 75 117 254 300 288 184 175 150 169 113 138 159 145 171 180 165 164 166 168 173 176 173 173 175 177 183 182 191 193 200 203 198 193 194 201 192 192 184 149 140 234 230 223 218 211 227 195 196
48 31 307 233 216 138 166 188 126 141 152 179 168 136 166 165 165 165 168 172 178 178 178 182 184 181 188 184 192 198 199 200 187 193 194 188 194 194 170 176 211 276 253 253 239 263 256 242 205
24 333 266 252 199 191 184 199 158 172 190 196 155 148 164 166 169 170 174 177 181 181 180 184 189 189 187 190 196 188 191 193 183 188 188 185 187 181 168 201 237 283 299 238 248 247 252 252 230
109 250 267 283 221 140 180 208 182 180 209 216 203 159 165 169 172 177 181 182 181 179 184 186 192 194 192 194 193 191 199 203 192 196 192 183 167 154 169 213 253 280 289 251 235 235 242 251 242
280 264 267 300 179 162 179 176 191 207 230 235 211 190 169 175 178 182 186 186 186 189 189 191 195 197 196 197 198 202 207 201 198 193 179 177 182 190 218 253 258 298 328 295 205 213 235 250 238
222 328 316 303 231 201 163 199 220 225 225 252 174 173 178 181 184 189 192 193 194 197 195 200 203 200 197 197 199 207 206 202 200 202 194 192 196 202 251 246 237 216 326 276 228 231 239 251 251
312 306 307 332 200 177 197 221 227 218 184 170 169 177 182 186 188 189 196 198 202 202 203 206 209 206 202 194 202 211 213 204 201 198 195 194 195 203 215 223 198 222 290 282 253 243 249 250 244
311 321 352 27 156 172 183 238 233 220 174 176 184 186 186 190 193 198 197 200 202 204 207 211 212 206 201 196 198 208 217 208 200 194 198 199 188 190 192 204 229 266 253 301 231 233 248 261 239
342 354 343 346 170 193 191 269 247 190 186 187 188 190 194 198 200 203 207 208 208 214 213 210 211 210 205 200 200 213 228 210 201 197 201 198 188 185 192 203 315 251 222 270 234 249 238 244 244
10 332 324 319 225 211 209 278 256 183 194 203 197 196 200 204 211 214 215 217 219 220 220 214 215 214 212 212 205 216 227 212 204 204 204 203 206 208 208 243 304 195 164 114 280 270 263 259 240
331 321 302 287 310 260 254 263 245 196 198 211 211 204 209 213 219 218 221 224 227 229 227 220 220 223 219 219 217 222 221 213 210 206 206 206 217 219 223 218 273 206 235 266 305 315 270 249 240
281 280 288 288 299 272 258 264 271 210 205 215 219 212 212 219 224 223 225 225 231 234 232 227 221 224 221 215 217 223 222 212 208 200 202 206 208 207 215 215 245 230 265 253 256 287 297 294 280
255 296 301 288 309 211 320 292 283 220 213 212 216 216 219 225 225 228 229 229 232 237 235 231 225 222 221 220 219 228 227 215 210 203 208 209 211 222 229 220 230 193 201 244 276 277 305 278 267
266 258 291 282 325 25 318 290 353 33 240 229 230 226 225 227 226 227 227 232 239 230 226 232 229 222 220 221 219 227 221 217 212 208 209 212 215 225 222 212 217 224 243 274 254 258 281 282 262
279 215 276 298 311 324 348 318 0 343 266 222 224 225 226 230 226 227 229 228 220 219 219 227 230 225 219 216 216 224 223 222 215 213 212 215 219 215 213 213 224 223 241 262 262 277 254 275 279
286 304 323 331 304 303 5 286 322 345 10 352 238 233 222 218 212 216 221 218 210 213 216 221 229 227 221 215 220 223 225 229 221 214 215 213 217 214 216 228 235 245 253 253 269 273 261 275 263
153 267 197 134 302 271 75 322 302 9 321 310 316 293 230 216 219 217 215 208 209 210 210 222 226 228 223 219 224 225 226 232 224 211 214 213 221 223 224 230 246 247 260 264 270 266 266 267 259
202 240 284 283 253 304 163 261 279 283 352 296 311 309 242 205 201 199 199 208 214 213 211 212 225 224 225 220 222 225 227 229 226 205 212 216 218 224 232 238 245 258 262 262 272 273 279 282 277
203 260 243 260 289 327 170 318 349 200 356 349 342 352 199 195 204 200 205 208 213 211 217 216 223 218 230 224 223 224 225 228 226 213 206 214 224 237 246 248 245 262 260 263 273 271 277 286 274
139 204 355 181 159 268 353 293 265 266 358 352 3 12 292 202 199 199 198 200 208 192 199 217 225 225 226 225 223 222 221 223 228 215 210 219 229 243 250 248 244 254 252 267 278 271 271 278 267
245 130 177 195 247 286 315 293 300 346 338 347 355 357 344 288 209 201 197 201 207 198 200 219 208 216 221 226 226 224 220 220 225 220 215 223 235 240 247 249 251 244 262 269 264 270 275 276 272
148 201 83 110 297 250 294 314 203 296 306 319 339 348 346 350 203 205 201 206 208 208 214 222 228 222 220 222 224 226 224 221 221 221 216 221 231 236 242 251 253 248 260 257 269 270 281 279 278
261 220 198 230 182 23 322 273 209 270 304 301 317 342 356 8 281 196 202 198 202 205 216 218 229 212 217 219 226 229 226 226 225 225 221 221 227 232 237 243 241 247 256 261 262 273 278 275 275